Time,TemperatureF,DewpointF,PressureIn,WindDirection,WindDirectionDegrees,WindSpeedMPH,WindSpeedGustMPH,Humidity,HourlyPrecipIn,Conditions,Clouds,dailyrainin,SoftwareType,DateUTC
2013-07-11 00:01:00,72.6,72.6,29.86,SW,215,0.0,0.0,100,0.00,,CLR,0.37,VWS V14.01,2013-07-11 04:01:00,
2013-07-11 00:03:00,72.5,72.5,29.85,SW,215,0.0,0.0,100,0.00,,CLR,0.00,VWS V14.01,2013-07-11 04:03:00,
2013-07-11 00:08:00,72.5,72.5,29.86,SW,215,0.0,0.0,100,0.00,,CLR,0.00,VWS V14.01,2013-07-11 04:08:00,
2013-07-11 00:13:00,72.4,72.4,29.85,SW,215,0.0,0.0,100,0.00,,CLR,0.00,VWS V14.01,2013-07-11 04:13:00,
2013-07-11 00:18:00,72.2,72.2,29.84,SW,215,0.0,0.0,100,0.00,,CLR,0.00,VWS V14.01,2013-07-11 04:18:00,
2013-07-11 00:23:00,72.1,72.1,29.85,SW,215,0.0,0.0,100,0.00,,CLR,0.00,VWS V14.01,2013-07-11 04:23:00,
2013-07-11 00:29:00,72.1,72.1,29.85,SW,215,0.0,0.0,100,0.00,,CLR,0.00,VWS V14.01,2013-07-11 04:29:00,
2013-07-11 00:34:00,72.1,72.1,29.85,SW,215,0.0,0.0,100,0.00,,CLR,0.00,VWS V14.01,2013-07-11 04:34:00,
2013-07-11 00:39:00,71.9,71.9,29.85,SW,215,0.0,0.0,100,0.00,,CLR,0.00,VWS V14.01,2013-07-11 04:39:00,
2013-07-11 00:44:00,71.8,71.8,29.84,SW,215,0.0,0.0,100,0.00,,CLR,0.00,VWS V14.01,2013-07-11 04:44:00,
2013-07-11 00:49:00,71.7,71.7,29.85,SW,215,0.0,0.0,100,0.00,,CLR,0.00,VWS V14.01,2013-07-11 04:49:00,
2013-07-11 00:54:00,71.7,71.7,29.85,SW,215,0.0,0.0,100,0.00,,CLR,0.00,VWS V14.01,2013-07-11 04:54:00,
2013-07-11 00:59:00,71.6,71.6,29.84,SW,215,0.0,0.0,100,0.00,,CLR,0.00,VWS V14.01,2013-07-11 04:59:00,
2013-07-11 01:04:00,71.6,71.6,29.84,SW,215,0.0,0.0,100,0.00,,CLR,0.00,VWS V14.01,2013-07-11 05:04:00,
2013-07-11 01:09:00,71.5,71.5,29.83,SW,215,0.0,0.0,100,0.00,,CLR,0.00,VWS V14.01,2013-07-11 05:09:00,
2013-07-11 01:15:00,71.5,71.5,29.84,SW,215,0.0,0.0,100,0.00,,CLR,0.00,VWS V14.01,2013-07-11 05:15:00,
2013-07-11 01:20:00,71.4,71.4,29.84,SW,215,0.0,0.0,100,0.00,,CLR,0.00,VWS V14.01,2013-07-11 05:20:00,
2013-07-11 01:25:00,71.4,71.4,29.84,SW,215,0.0,0.0,100,0.00,,CLR,0.00,VWS V14.01,2013-07-11 05:25:00,
2013-07-11 01:30:00,71.3,71.3,29.83,SW,215,0.0,0.0,100,0.00,,CLR,0.00,VWS V14.01,2013-07-11 05:30:00,
2013-07-11 01:35:00,71.3,71.3,29.84,SW,215,0.0,0.0,100,0.00,,CLR,0.00,VWS V14.01,2013-07-11 05:35:00,
2013-07-11 01:40:00,71.3,71.3,29.84,SW,215,0.0,0.0,100,0.00,,CLR,0.00,VWS V14.01,2013-07-11 05:40:00,
2013-07-11 01:45:00,71.3,71.3,29.84,SW,215,0.0,0.0,100,0.00,,CLR,0.00,VWS V14.01,2013-07-11 05:45:00,
2013-07-11 01:50:00,71.4,71.4,29.83,SW,215,0.0,0.0,100,0.00,,CLR,0.00,VWS V14.01,2013-07-11 05:50:00,
2013-07-11 01:56:00,71.3,71.3,29.83,SW,215,0.0,0.0,100,0.00,,CLR,0.00,VWS V14.01,2013-07-11 05:56:00,
2013-07-11 02:01:00,71.3,71.3,29.84,SW,215,0.0,0.0,100,0.00,,CLR,0.00,VWS V14.01,2013-07-11 06:01:00,
2013-07-11 02:06:00,71.3,71.3,29.84,SW,215,0.0,0.0,100,0.00,,CLR,0.00,VWS V14.01,2013-07-11 06:06:00,
2013-07-11 02:11:00,71.3,71.3,29.84,SW,215,0.0,0.0,100,0.00,,CLR,0.00,VWS V14.01,2013-07-11 06:11:00,
2013-07-11 02:16:00,71.2,71.2,29.84,SW,215,0.0,0.0,100,0.00,,CLR,0.00,VWS V14.01,2013-07-11 06:16:00,
2013-07-11 02:21:00,71.2,71.2,29.84,SW,215,0.0,0.0,100,0.00,,CLR,0.00,VWS V14.01,2013-07-11 06:21:00,
2013-07-11 02:26:00,71.1,71.1,29.85,SW,215,0.0,0.0,100,0.00,,CLR,0.00,VWS V14.01,2013-07-11 06:26:00,
2013-07-11 02:31:00,71.1,71.1,29.84,SW,215,0.0,0.0,100,0.00,,CLR,0.00,VWS V14.01,2013-07-11 06:31:00,
2013-07-11 02:36:00,71.1,71.1,29.84,SW,215,0.0,0.0,100,0.00,,CLR,0.00,VWS V14.01,2013-07-11 06:36:00,
2013-07-11 02:41:00,71.0,71.0,29.83,SW,215,0.0,0.0,100,0.00,,CLR,0.00,VWS V14.01,2013-07-11 06:41:00,
2013-07-11 02:46:00,71.0,71.0,29.84,SW,215,0.0,0.0,100,0.00,,CLR,0.00,VWS V14.01,2013-07-11 06:46:00,
2013-07-11 02:51:00,71.1,71.1,29.85,SW,215,0.0,0.0,100,0.00,,CLR,0.00,VWS V14.01,2013-07-11 06:51:00,
2013-07-11 02:57:00,71.1,71.1,29.85,SW,215,0.0,0.0,100,0.00,,CLR,0.00,VWS V14.01,2013-07-11 06:57:00,
2013-07-11 03:02:00,71.1,71.1,29.84,SW,215,0.0,0.0,100,0.00,,CLR,0.00,VWS V14.01,2013-07-11 07:02:00,
2013-07-11 03:07:00,71.0,71.0,29.84,SW,215,0.0,0.0,100,0.00,,CLR,0.00,VWS V14.01,2013-07-11 07:07:00,
2013-07-11 03:12:00,71.1,71.1,29.85,SW,215,0.0,0.0,100,0.00,,CLR,0.00,VWS V14.01,2013-07-11 07:12:00,
2013-07-11 03:17:00,71.1,71.1,29.84,SW,215,0.0,0.0,100,0.00,,CLR,0.00,VWS V14.01,2013-07-11 07:17:00,
2013-07-11 03:22:00,71.0,71.0,29.84,SW,215,0.0,0.0,100,0.00,,CLR,0.00,VWS V14.01,2013-07-11 07:22:00,
2013-07-11 03:27:00,71.0,71.0,29.84,SW,215,0.0,0.0,100,0.00,,CLR,0.00,VWS V14.01,2013-07-11 07:27:00,
2013-07-11 03:32:00,71.0,71.0,29.84,SW,215,0.0,0.0,100,0.00,,CLR,0.00,VWS V14.01,2013-07-11 07:32:00,
2013-07-11 03:37:00,71.0,71.0,29.84,SW,215,0.0,0.0,100,0.00,,CLR,0.00,VWS V14.01,2013-07-11 07:37:00,
2013-07-11 03:42:00,71.0,71.0,29.84,SW,215,0.0,0.0,100,0.00,,CLR,0.00,VWS V14.01,2013-07-11 07:42:00,
2013-07-11 03:48:00,71.1,71.1,29.84,SW,215,0.0,0.0,100,0.00,,CLR,0.00,VWS V14.01,2013-07-11 07:48:00,
2013-07-11 03:53:00,71.0,71.0,29.84,SW,215,0.0,0.0,100,0.00,,CLR,0.00,VWS V14.01,2013-07-11 07:53:00,
2013-07-11 03:58:00,71.1,71.1,29.84,SW,215,0.0,0.0,100,0.00,,CLR,0.00,VWS V14.01,2013-07-11 07:58:00,
2013-07-11 04:03:00,71.1,71.1,29.85,SW,215,0.0,0.0,100,0.00,,BKN075,0.00,VWS V14.01,2013-07-11 08:03:00,
2013-07-11 04:08:00,71.2,71.2,29.84,SW,215,0.0,0.0,100,0.00,,BKN075,0.00,VWS V14.01,2013-07-11 08:08:00,
2013-07-11 04:13:00,71.3,71.3,29.84,SW,215,0.0,0.0,100,0.00,,BKN075,0.00,VWS V14.01,2013-07-11 08:13:00,
2013-07-11 04:18:00,71.3,71.3,29.84,SW,215,0.0,0.0,100,0.00,,BKN075,0.00,VWS V14.01,2013-07-11 08:18:00,
2013-07-11 04:23:00,71.3,71.3,29.85,SW,215,0.0,0.0,100,0.00,,BKN075,0.00,VWS V14.01,2013-07-11 08:23:00,
2013-07-11 04:29:00,71.4,71.4,29.85,SW,215,0.0,0.0,100,0.00,,BKN075,0.00,VWS V14.01,2013-07-11 08:29:00,
2013-07-11 04:34:00,71.3,71.3,29.84,SW,215,0.0,0.0,100,0.00,,BKN075,0.00,VWS V14.01,2013-07-11 08:34:00,
2013-07-11 04:39:00,71.4,71.4,29.83,SW,215,0.0,0.0,100,0.00,,BKN075,0.00,VWS V14.01,2013-07-11 08:39:00,
2013-07-11 04:44:00,71.4,71.4,29.84,SW,215,0.0,0.0,100,0.00,,BKN075,0.00,VWS V14.01,2013-07-11 08:44:00,
2013-07-11 04:49:00,71.4,71.4,29.84,SW,215,0.0,0.0,100,0.00,,BKN075,0.00,VWS V14.01,2013-07-11 08:49:00,
2013-07-11 04:54:00,71.5,71.5,29.84,SW,215,0.0,0.0,100,0.00,,BKN075,0.00,VWS V14.01,2013-07-11 08:54:00,
2013-07-11 04:59:00,71.5,71.5,29.83,SW,215,0.0,0.0,100,0.00,,BKN075,0.00,VWS V14.01,2013-07-11 08:59:00,
2013-07-11 05:04:00,71.5,71.5,29.84,SW,215,0.0,0.0,100,0.00,,FEW100,0.00,VWS V14.01,2013-07-11 09:04:00,
2013-07-11 05:10:00,71.5,71.5,29.84,SW,215,0.0,0.0,100,0.00,,FEW100,0.00,VWS V14.01,2013-07-11 09:10:00,
2013-07-11 05:15:00,71.6,71.6,29.84,SW,215,0.0,0.0,100,0.00,,FEW100,0.00,VWS V14.01,2013-07-11 09:15:00,
2013-07-11 05:20:00,71.6,71.6,29.84,SW,215,0.0,0.0,100,0.00,,FEW100,0.00,VWS V14.01,2013-07-11 09:20:00,
2013-07-11 05:25:00,71.6,71.6,29.84,SW,215,0.0,0.0,100,0.00,,FEW100,0.00,VWS V14.01,2013-07-11 09:25:00,
2013-07-11 05:30:00,71.6,71.6,29.84,SW,215,0.0,0.0,100,0.00,,FEW100,0.00,VWS V14.01,2013-07-11 09:30:00,
2013-07-11 05:35:00,71.7,71.7,29.85,SW,215,0.0,0.0,100,0.00,,FEW100,0.00,VWS V14.01,2013-07-11 09:35:00,
2013-07-11 05:40:00,71.8,71.8,29.84,SW,215,0.0,0.0,100,0.00,,FEW100,0.00,VWS V14.01,2013-07-11 09:40:00,
2013-07-11 05:45:00,71.8,71.8,29.84,SW,215,0.0,0.0,100,0.00,,FEW100,0.00,VWS V14.01,2013-07-11 09:45:00,
2013-07-11 05:50:00,71.7,71.7,29.84,SW,215,0.0,0.0,100,0.00,,FEW100,0.00,VWS V14.01,2013-07-11 09:50:00,
2013-07-11 05:56:00,71.8,71.8,29.84,SW,215,0.0,0.0,100,0.00,,FEW100,0.00,VWS V14.01,2013-07-11 09:56:00,
2013-07-11 06:01:00,71.9,71.9,29.86,SW,215,0.0,0.0,100,0.00,,FEW100,0.00,VWS V14.01,2013-07-11 10:01:00,
2013-07-11 06:06:00,71.9,71.9,29.86,SW,215,0.0,0.0,100,0.00,,FEW100,0.00,VWS V14.01,2013-07-11 10:06:00,
2013-07-11 06:11:00,71.9,71.9,29.85,SW,215,0.0,0.0,100,0.00,,FEW100,0.00,VWS V14.01,2013-07-11 10:11:00,
2013-07-11 06:16:00,71.9,71.9,29.86,SW,215,0.0,0.0,100,0.00,,FEW100,0.00,VWS V14.01,2013-07-11 10:16:00,
2013-07-11 06:21:00,72.1,72.1,29.86,SW,215,0.0,0.0,100,0.01,,FEW100,0.01,VWS V14.01,2013-07-11 10:21:00,
2013-07-11 06:26:00,72.2,72.2,29.86,SW,215,0.0,0.0,100,0.01,,FEW100,0.01,VWS V14.01,2013-07-11 10:26:00,
2013-07-11 06:31:00,72.1,72.1,29.86,SW,215,0.0,0.0,100,0.01,,FEW100,0.01,VWS V14.01,2013-07-11 10:31:00,
2013-07-11 06:36:00,72.1,72.1,29.85,SW,215,0.0,0.0,100,0.01,,FEW100,0.01,VWS V14.01,2013-07-11 10:36:00,
2013-07-11 06:41:00,72.2,72.2,29.85,SW,215,0.0,0.0,100,0.01,,FEW100,0.01,VWS V14.01,2013-07-11 10:41:00,
2013-07-11 06:46:00,72.4,72.4,29.86,SW,215,0.0,0.0,100,0.01,,FEW100,0.01,VWS V14.01,2013-07-11 10:46:00,
2013-07-11 06:51:00,72.5,72.5,29.87,SW,215,0.0,0.0,100,0.02,,FEW100,0.02,VWS V14.01,2013-07-11 10:51:00,
2013-07-11 06:57:00,72.6,72.6,29.87,SW,215,0.0,0.0,100,0.04,,FEW100,0.04,VWS V14.01,2013-07-11 10:57:00,
2013-07-11 07:02:00,72.7,72.7,29.87,SW,215,0.0,0.0,100,0.07,,-RA,0.07,VWS V14.01,2013-07-11 11:02:00,
2013-07-11 07:07:00,72.8,72.8,29.88,SW,215,0.0,0.0,100,0.14,,-RA,0.14,VWS V14.01,2013-07-11 11:07:00,
2013-07-11 07:12:00,73.0,73.0,29.88,SW,215,0.0,0.0,100,0.16,,-RA,0.16,VWS V14.01,2013-07-11 11:12:00,
2013-07-11 07:17:00,72.9,72.9,29.88,SW,215,0.0,0.0,100,0.17,,-RA,0.17,VWS V14.01,2013-07-11 11:17:00,
2013-07-11 07:22:00,72.7,72.7,29.87,SW,215,0.0,0.0,100,0.16,,-RA,0.17,VWS V14.01,2013-07-11 11:22:00,
2013-07-11 07:27:00,72.8,72.8,29.88,SW,215,0.0,0.0,100,0.16,,-RA,0.17,VWS V14.01,2013-07-11 11:27:00,
2013-07-11 07:32:00,73.0,73.0,29.87,SW,215,0.0,0.0,100,0.16,,-RA,0.17,VWS V14.01,2013-07-11 11:32:00,
2013-07-11 07:37:00,73.1,73.1,29.87,SW,215,0.0,0.0,100,0.16,,-RA,0.17,VWS V14.01,2013-07-11 11:37:00,
2013-07-11 07:43:00,73.1,73.1,29.87,SW,215,0.0,0.0,100,0.16,,-RA,0.17,VWS V14.01,2013-07-11 11:43:00,
2013-07-11 07:48:00,73.2,73.2,29.87,SW,215,0.0,0.0,100,0.16,,-RA,0.17,VWS V14.01,2013-07-11 11:48:00,
2013-07-11 07:53:00,73.4,73.4,29.88,SW,215,0.0,0.0,100,0.15,,-RA,0.17,VWS V14.01,2013-07-11 11:53:00,
2013-07-11 07:58:00,73.6,73.6,29.88,SW,215,0.0,0.0,100,0.15,,-RA,0.17,VWS V14.01,2013-07-11 11:58:00,
2013-07-11 08:03:00,73.7,73.7,29.88,SW,215,0.0,0.0,100,0.10,,,0.17,VWS V14.01,2013-07-11 12:03:00,
2013-07-11 08:08:00,73.9,73.9,29.87,SW,215,0.0,0.0,100,0.10,,,0.17,VWS V14.01,2013-07-11 12:08:00,
2013-07-11 08:13:00,74.2,74.2,29.87,SW,215,0.0,0.0,100,0.01,,,0.17,VWS V14.01,2013-07-11 12:13:00,
2013-07-11 08:18:00,74.6,74.6,29.88,SW,215,0.0,0.0,100,0.01,,,0.17,VWS V14.01,2013-07-11 12:18:00,
2013-07-11 08:23:00,74.8,74.8,29.87,SW,215,0.0,0.0,100,0.00,,,0.17,VWS V14.01,2013-07-11 12:23:00,
2013-07-11 08:28:00,74.9,74.9,29.87,SW,215,0.0,0.0,100,0.00,,,0.17,VWS V14.01,2013-07-11 12:28:00,
2013-07-11 08:33:00,74.9,74.9,29.87,SW,215,0.0,0.0,100,0.00,,,0.17,VWS V14.01,2013-07-11 12:33:00,
2013-07-11 08:39:00,75.0,75.0,29.87,SW,215,0.0,0.0,100,0.00,,,0.17,VWS V14.01,2013-07-11 12:39:00,
2013-07-11 08:44:00,75.2,75.2,29.88,SW,215,0.0,0.0,100,0.00,,,0.17,VWS V14.01,2013-07-11 12:44:00,
2013-07-11 08:49:00,75.1,75.1,29.88,SW,215,0.0,0.0,100,0.00,,,0.17,VWS V14.01,2013-07-11 12:49:00,
2013-07-11 08:54:00,75.1,75.1,29.87,SW,215,0.0,0.0,100,0.00,,,0.17,VWS V14.01,2013-07-11 12:54:00,
2013-07-11 08:59:00,75.2,75.2,29.88,SW,215,0.0,0.0,100,0.00,,,0.17,VWS V14.01,2013-07-11 12:59:00,
2013-07-11 09:04:00,75.3,75.3,29.88,SW,215,0.0,0.0,100,0.00,,OVC100,0.17,VWS V14.01,2013-07-11 13:04:00,
2013-07-11 09:09:00,75.3,75.3,29.87,SW,215,0.0,0.0,100,0.00,,OVC100,0.17,VWS V14.01,2013-07-11 13:09:00,
2013-07-11 09:15:00,75.2,75.2,29.87,SW,215,0.0,0.0,100,0.00,,OVC100,0.17,VWS V14.01,2013-07-11 13:15:00,
2013-07-11 09:20:00,74.6,74.6,29.87,SW,215,0.0,0.0,100,0.00,,OVC100,0.17,VWS V14.01,2013-07-11 13:20:00,
2013-07-11 09:25:00,74.5,74.5,29.88,SW,215,0.0,0.0,100,0.00,,OVC100,0.17,VWS V14.01,2013-07-11 13:25:00,
2013-07-11 09:30:00,74.8,74.8,29.87,SW,215,0.0,0.0,100,0.00,,OVC100,0.17,VWS V14.01,2013-07-11 13:30:00,
2013-07-11 09:35:00,74.6,74.6,29.87,SW,215,0.0,0.0,100,0.00,,OVC100,0.17,VWS V14.01,2013-07-11 13:35:00,
2013-07-11 09:41:00,74.6,74.6,29.87,SW,215,0.0,0.0,100,0.00,,OVC100,0.17,VWS V14.01,2013-07-11 13:41:00,
2013-07-11 09:46:00,74.7,74.7,29.89,SW,215,0.0,0.0,100,0.00,,OVC100,0.17,VWS V14.01,2013-07-11 13:46:00,
2013-07-11 09:51:00,74.7,74.7,29.89,SW,215,0.0,0.0,100,0.00,,OVC100,0.17,VWS V14.01,2013-07-11 13:51:00,
2013-07-11 09:56:00,74.6,74.6,29.88,SW,215,0.0,0.0,100,0.00,,OVC100,0.17,VWS V14.01,2013-07-11 13:56:00,
2013-07-11 10:01:00,74.5,74.5,29.88,SW,215,0.0,0.0,100,0.00,,BKN100,0.17,VWS V14.01,2013-07-11 14:01:00,
2013-07-11 10:07:00,74.7,74.7,29.89,SW,215,0.0,0.0,100,0.00,,BKN100,0.17,VWS V14.01,2013-07-11 14:07:00,
2013-07-11 10:12:00,74.6,74.6,29.90,SW,215,0.0,0.0,100,0.00,,BKN100,0.17,VWS V14.01,2013-07-11 14:12:00,
2013-07-11 10:17:00,74.5,74.5,29.89,SW,215,0.0,0.0,100,0.00,,BKN100,0.17,VWS V14.01,2013-07-11 14:17:00,
2013-07-11 10:22:00,74.2,74.2,29.89,SW,215,0.0,0.0,100,0.00,,BKN100,0.17,VWS V14.01,2013-07-11 14:22:00,
2013-07-11 10:27:00,73.9,73.9,29.90,SW,215,0.0,0.0,100,0.00,,BKN100,0.17,VWS V14.01,2013-07-11 14:27:00,
2013-07-11 10:32:00,73.9,73.9,29.90,SW,215,0.0,0.0,100,0.00,,BKN100,0.17,VWS V14.01,2013-07-11 14:32:00,
2013-07-11 10:37:00,73.9,73.9,29.90,SW,215,0.0,0.0,100,0.00,,BKN100,0.17,VWS V14.01,2013-07-11 14:37:00,
2013-07-11 10:42:00,74.0,74.0,29.89,SW,215,0.0,0.0,100,0.00,,BKN100,0.17,VWS V14.01,2013-07-11 14:42:00,
2013-07-11 10:48:00,74.1,74.1,29.88,SW,215,0.0,0.0,100,0.00,,BKN100,0.17,VWS V14.01,2013-07-11 14:48:00,
2013-07-11 10:53:00,74.4,74.4,29.88,SW,215,0.0,0.0,100,0.00,,BKN100,0.17,VWS V14.01,2013-07-11 14:53:00,
2013-07-11 10:58:00,74.6,74.6,29.89,SW,215,0.0,0.0,100,0.00,,BKN100,0.17,VWS V14.01,2013-07-11 14:58:00,
2013-07-11 11:03:00,74.3,74.3,29.89,SW,215,0.0,0.0,100,0.00,,BKN110,0.17,VWS V14.01,2013-07-11 15:03:00,
2013-07-11 11:08:00,74.0,74.0,29.89,SW,215,0.0,0.0,100,0.00,,BKN110,0.17,VWS V14.01,2013-07-11 15:08:00,
2013-07-11 11:13:00,74.2,74.2,29.89,SW,215,0.0,0.0,100,0.00,,BKN110,0.17,VWS V14.01,2013-07-11 15:13:00,
2013-07-11 11:19:00,74.4,74.4,29.90,SW,215,0.0,0.0,100,0.00,,BKN110,0.17,VWS V14.01,2013-07-11 15:19:00,
2013-07-11 11:24:00,74.5,74.5,29.89,SW,215,0.0,0.0,100,0.00,,BKN110,0.17,VWS V14.01,2013-07-11 15:24:00,
2013-07-11 11:29:00,74.5,74.5,29.90,SW,215,0.0,0.0,100,0.00,,BKN110,0.17,VWS V14.01,2013-07-11 15:29:00,
2013-07-11 11:34:00,74.4,74.4,29.89,SW,215,0.0,0.0,100,0.00,,BKN110,0.17,VWS V14.01,2013-07-11 15:34:00,
2013-07-11 11:39:00,74.4,74.4,29.89,SW,215,0.0,0.0,100,0.00,,BKN110,0.17,VWS V14.01,2013-07-11 15:39:00,
2013-07-11 11:44:00,74.3,74.3,29.90,SW,215,0.0,0.0,100,0.00,,BKN110,0.17,VWS V14.01,2013-07-11 15:44:00,
2013-07-11 11:49:00,74.4,74.4,29.89,SW,215,0.0,0.0,100,0.00,,BKN110,0.17,VWS V14.01,2013-07-11 15:49:00,
2013-07-11 11:54:00,74.7,74.7,29.89,SW,215,0.0,0.0,100,0.00,,BKN110,0.17,VWS V14.01,2013-07-11 15:54:00,
2013-07-11 11:59:00,74.7,74.7,29.88,SW,215,0.0,0.0,100,0.00,,BKN110,0.17,VWS V14.01,2013-07-11 15:59:00,
2013-07-11 12:05:00,75.2,75.2,29.89,SW,215,0.0,0.0,100,0.00,,CLR,0.17,VWS V14.01,2013-07-11 16:05:00,
2013-07-11 12:10:00,75.6,75.6,29.89,SW,215,0.0,0.0,100,0.00,,CLR,0.17,VWS V14.01,2013-07-11 16:10:00,
2013-07-11 12:15:00,75.4,75.4,29.89,SW,215,0.0,0.0,100,0.00,,CLR,0.17,VWS V14.01,2013-07-11 16:15:00,
2013-07-11 12:20:00,75.4,75.4,29.89,SW,215,0.0,0.0,100,0.00,,CLR,0.17,VWS V14.01,2013-07-11 16:20:00,
2013-07-11 12:25:00,75.2,75.2,29.89,SW,215,0.0,0.0,100,0.00,,CLR,0.17,VWS V14.01,2013-07-11 16:25:00,
2013-07-11 12:30:00,75.3,75.3,29.89,SW,215,0.0,0.0,100,0.00,,CLR,0.17,VWS V14.01,2013-07-11 16:30:00,
2013-07-11 12:35:00,75.6,75.6,29.89,SW,215,0.0,0.0,100,0.00,,CLR,0.17,VWS V14.01,2013-07-11 16:35:00,
2013-07-11 12:40:00,75.6,75.4,29.89,SW,215,0.0,0.0,99,0.00,,CLR,0.17,VWS V14.01,2013-07-11 16:40:00,
2013-07-11 12:45:00,75.2,74.8,29.89,SW,215,0.0,0.0,98,0.00,,CLR,0.17,VWS V14.01,2013-07-11 16:45:00,
2013-07-11 12:50:00,75.2,74.5,29.89,SW,215,0.0,0.0,98,0.00,,CLR,0.17,VWS V14.01,2013-07-11 16:50:00,
2013-07-11 12:56:00,75.7,74.9,29.89,SW,215,0.0,0.0,97,0.00,,CLR,0.17,VWS V14.01,2013-07-11 16:56:00,
2013-07-11 13:01:00,76.1,75.0,29.89,SW,215,0.0,0.0,96,0.00,,CLR,0.17,VWS V14.01,2013-07-11 17:01:00,
2013-07-11 13:06:00,76.3,75.2,29.89,SW,215,0.0,0.0,96,0.00,,BKN020,0.17,VWS V14.01,2013-07-11 17:06:00,
2013-07-11 13:11:00,76.2,74.6,29.89,SW,215,0.0,0.0,95,0.00,,BKN020,0.17,VWS V14.01,2013-07-11 17:11:00,
2013-07-11 13:17:00,76.7,75.1,29.89,SW,215,0.0,0.0,95,0.00,,BKN020,0.17,VWS V14.01,2013-07-11 17:17:00,
2013-07-11 13:22:00,76.9,75.4,29.89,SW,215,0.0,0.0,95,0.00,,BKN020,0.17,VWS V14.01,2013-07-11 17:22:00,
2013-07-11 13:27:00,76.7,74.5,29.89,SW,215,0.0,0.0,93,0.00,,BKN020,0.17,VWS V14.01,2013-07-11 17:27:00,
2013-07-11 13:32:00,77.2,75.1,29.89,SW,215,0.0,0.0,93,0.00,,BKN020,0.17,VWS V14.01,2013-07-11 17:32:00,
2013-07-11 13:37:00,77.1,74.7,29.89,SW,215,0.0,0.0,92,0.00,,BKN020,0.17,VWS V14.01,2013-07-11 17:37:00,
2013-07-11 13:43:00,76.9,73.9,29.89,SW,215,0.0,0.0,91,0.00,,BKN020,0.17,VWS V14.01,2013-07-11 17:43:00,
2013-07-11 13:48:00,77.3,74.4,29.89,SW,215,0.0,0.0,91,0.00,,BKN020,0.17,VWS V14.01,2013-07-11 17:48:00,
2013-07-11 13:53:00,77.4,74.5,29.89,SW,215,0.0,0.0,91,0.00,,BKN020,0.17,VWS V14.01,2013-07-11 17:53:00,
2013-07-11 13:58:00,77.4,74.7,29.89,SW,215,0.0,0.0,91,0.00,,BKN020,0.17,VWS V14.01,2013-07-11 17:58:00,
2013-07-11 14:03:00,77.4,74.6,29.89,SW,215,0.0,0.0,91,0.00,,BKN029,0.17,VWS V14.01,2013-07-11 18:03:00,
2013-07-11 14:08:00,77.4,73.2,29.89,WSW,257,0.0,2.5,87,0.00,,BKN029,0.17,VWS V14.01,2013-07-11 18:08:00,
2013-07-11 14:13:00,78.4,74.6,29.89,WSW,257,0.0,0.0,88,0.00,,BKN029,0.17,VWS V14.01,2013-07-11 18:13:00,
2013-07-11 14:18:00,78.8,73.8,29.89,WSW,257,0.0,0.0,85,0.00,,BKN029,0.17,VWS V14.01,2013-07-11 18:18:00,
2013-07-11 14:24:00,79.3,73.9,29.89,WSW,257,0.0,0.0,84,0.00,,BKN029,0.17,VWS V14.01,2013-07-11 18:24:00,
2013-07-11 14:29:00,79.2,74.0,29.89,WSW,257,0.0,0.0,84,0.00,,BKN029,0.17,VWS V14.01,2013-07-11 18:29:00,
2013-07-11 14:34:00,78.8,73.3,29.89,WSW,257,0.0,0.0,83,0.00,,BKN029,0.17,VWS V14.01,2013-07-11 18:34:00,
2013-07-11 14:39:00,78.7,72.6,29.89,WSW,257,0.0,0.0,82,0.00,,BKN029,0.17,VWS V14.01,2013-07-11 18:39:00,
2013-07-11 14:45:00,79.3,74.9,29.88,WSW,257,0.0,0.0,86,0.00,,BKN029,0.17,VWS V14.01,2013-07-11 18:45:00,
2013-07-11 14:50:00,79.3,74.4,29.88,WSW,257,0.0,0.0,85,0.00,,BKN029,0.17,VWS V14.01,2013-07-11 18:50:00,
2013-07-11 14:55:00,79.4,72.1,29.89,WSW,257,0.0,0.0,78,0.00,,BKN029,0.17,VWS V14.01,2013-07-11 18:55:00,
2013-07-11 15:00:00,80.1,72.7,29.88,WSW,257,0.0,0.0,78,0.00,,BKN029,0.17,VWS V14.01,2013-07-11 19:00:00,
2013-07-11 15:05:00,80.5,73.8,29.88,WSW,257,0.0,0.0,80,0.00,,SCT025,0.17,VWS V14.01,2013-07-11 19:05:00,
2013-07-11 15:10:00,80.9,75.2,29.88,WSW,257,0.0,0.0,83,0.00,,SCT025,0.17,VWS V14.01,2013-07-11 19:10:00,
2013-07-11 15:15:00,80.7,75.0,29.88,WSW,257,0.0,0.0,83,0.00,,SCT025,0.17,VWS V14.01,2013-07-11 19:15:00,
2013-07-11 15:20:00,80.5,75.0,29.88,WSW,257,0.0,0.0,83,0.00,,SCT025,0.17,VWS V14.01,2013-07-11 19:20:00,
2013-07-11 15:26:00,80.5,75.3,29.88,WSW,257,0.0,0.0,84,0.00,,SCT025,0.17,VWS V14.01,2013-07-11 19:26:00,
2013-07-11 15:31:00,80.4,75.5,29.88,WSW,257,0.0,0.0,85,0.00,,SCT025,0.17,VWS V14.01,2013-07-11 19:31:00,
2013-07-11 15:36:00,80.1,74.1,29.88,WSW,257,0.0,0.0,82,0.00,,SCT025,0.17,VWS V14.01,2013-07-11 19:36:00,
2013-07-11 15:41:00,80.0,72.1,29.88,WSW,257,0.0,0.0,77,0.00,,SCT025,0.17,VWS V14.01,2013-07-11 19:41:00,
2013-07-11 15:47:00,80.3,73.2,29.88,WSW,257,0.0,0.0,79,0.00,,SCT025,0.17,VWS V14.01,2013-07-11 19:47:00,
2013-07-11 15:52:00,80.4,72.5,29.88,WSW,257,0.0,0.0,77,0.00,,SCT025,0.17,VWS V14.01,2013-07-11 19:52:00,
2013-07-11 15:57:00,80.6,73.8,29.88,WSW,257,0.0,0.0,80,0.00,,SCT025,0.17,VWS V14.01,2013-07-11 19:57:00,
2013-07-11 16:02:00,80.9,73.8,29.88,WSW,257,0.0,0.0,79,0.00,,FEW025,0.17,VWS V14.01,2013-07-11 20:02:00,
2013-07-11 16:08:00,81.0,74.5,29.88,WSW,257,0.0,0.0,81,0.00,,FEW025,0.17,VWS V14.01,2013-07-11 20:08:00,
2013-07-11 16:13:00,80.7,74.4,29.88,WSW,257,0.0,0.0,81,0.00,,FEW025,0.17,VWS V14.01,2013-07-11 20:13:00,
2013-07-11 16:18:00,80.5,74.4,29.88,WSW,257,0.0,0.0,82,0.00,,FEW025,0.17,VWS V14.01,2013-07-11 20:18:00,
2013-07-11 16:23:00,80.3,74.4,29.89,WSW,257,0.0,0.0,82,0.00,,FEW025,0.17,VWS V14.01,2013-07-11 20:23:00,
2013-07-11 16:28:00,80.5,75.1,29.89,WSW,257,0.0,0.0,84,0.00,,FEW025,0.17,VWS V14.01,2013-07-11 20:28:00,
2013-07-11 16:33:00,80.4,74.6,29.89,WSW,257,0.0,0.0,83,0.00,,FEW025,0.17,VWS V14.01,2013-07-11 20:33:00,
2013-07-11 16:38:00,80.5,74.4,29.88,WSW,257,0.0,0.0,82,0.00,,FEW025,0.17,VWS V14.01,2013-07-11 20:38:00,
2013-07-11 16:43:00,80.4,73.7,29.88,WSW,257,0.0,0.0,80,0.00,,FEW025,0.17,VWS V14.01,2013-07-11 20:43:00,
2013-07-11 16:48:00,80.4,74.2,29.88,WSW,257,0.0,0.0,81,0.00,,FEW025,0.17,VWS V14.01,2013-07-11 20:48:00,
2013-07-11 16:53:00,80.2,74.0,29.88,WSW,257,0.0,0.0,81,0.00,,FEW025,0.17,VWS V14.01,2013-07-11 20:53:00,
2013-07-11 16:59:00,80.3,74.5,29.88,WSW,257,0.0,0.0,82,0.00,,FEW025,0.17,VWS V14.01,2013-07-11 20:59:00,
2013-07-11 17:04:00,80.3,74.7,29.88,WSW,257,0.0,0.0,83,0.00,,FEW039,0.17,VWS V14.01,2013-07-11 21:04:00,
2013-07-11 17:09:00,80.2,74.8,29.88,WSW,257,0.0,0.0,84,0.00,,FEW039,0.17,VWS V14.01,2013-07-11 21:09:00,
2013-07-11 17:14:00,79.8,73.8,29.88,WSW,257,0.0,0.0,82,0.00,,FEW039,0.17,VWS V14.01,2013-07-11 21:14:00,
2013-07-11 17:19:00,79.8,73.7,29.88,WSW,257,0.0,0.0,82,0.00,,FEW039,0.17,VWS V14.01,2013-07-11 21:19:00,
2013-07-11 17:24:00,79.9,74.4,29.88,WSW,257,0.0,0.0,83,0.00,,FEW039,0.17,VWS V14.01,2013-07-11 21:24:00,
2013-07-11 17:29:00,79.9,74.7,29.88,WSW,257,0.0,0.0,84,0.00,,FEW039,0.17,VWS V14.01,2013-07-11 21:29:00,
2013-07-11 17:34:00,79.8,74.6,29.88,WSW,257,0.0,0.0,84,0.00,,FEW039,0.17,VWS V14.01,2013-07-11 21:34:00,
2013-07-11 17:39:00,79.7,74.6,29.88,WSW,257,0.0,0.0,84,0.00,,FEW039,0.17,VWS V14.01,2013-07-11 21:39:00,
2013-07-11 17:45:00,79.3,74.4,29.88,WSW,257,0.0,0.0,85,0.00,,FEW039,0.17,VWS V14.01,2013-07-11 21:45:00,
2013-07-11 17:50:00,79.2,74.5,29.88,WSW,257,0.0,0.0,86,0.00,,FEW039,0.17,VWS V14.01,2013-07-11 21:50:00,
2013-07-11 17:55:00,79.1,74.8,29.89,WSW,257,0.0,0.0,87,0.00,,FEW039,0.17,VWS V14.01,2013-07-11 21:55:00,
2013-07-11 18:01:00,78.9,74.8,29.89,WSW,257,0.0,0.0,87,0.00,,FEW039,0.17,VWS V14.01,2013-07-11 22:01:00,
2013-07-11 18:06:00,78.8,74.7,29.89,WSW,257,0.0,0.0,87,0.00,,BKN070,0.17,VWS V14.01,2013-07-11 22:06:00,
2013-07-11 18:11:00,78.9,75.2,29.89,WSW,257,0.0,0.0,89,0.00,,BKN070,0.17,VWS V14.01,2013-07-11 22:11:00,
2013-07-11 18:16:00,78.9,75.5,29.89,WSW,257,0.0,0.0,89,0.00,,BKN070,0.17,VWS V14.01,2013-07-11 22:16:00,
2013-07-11 18:22:00,78.5,74.9,29.89,WSW,257,0.0,0.0,89,0.00,,BKN070,0.17,VWS V14.01,2013-07-11 22:22:00,
2013-07-11 18:27:00,78.3,74.7,29.89,WSW,257,0.0,0.0,89,0.00,,BKN070,0.17,VWS V14.01,2013-07-11 22:27:00,
2013-07-11 18:32:00,78.3,74.8,29.89,WSW,257,0.0,0.0,89,0.00,,BKN070,0.17,VWS V14.01,2013-07-11 22:32:00,
2013-07-11 18:37:00,78.3,75.2,29.90,WSW,257,0.0,0.0,90,0.00,,BKN070,0.17,VWS V14.01,2013-07-11 22:37:00,
2013-07-11 18:42:00,78.1,75.0,29.90,WSW,257,0.0,0.0,90,0.00,,BKN070,0.17,VWS V14.01,2013-07-11 22:42:00,
2013-07-11 18:48:00,77.8,75.0,29.90,WSW,257,0.0,0.0,91,0.00,,BKN070,0.17,VWS V14.01,2013-07-11 22:48:00,
2013-07-11 18:53:00,77.4,74.5,29.91,WSW,257,0.0,0.0,91,0.00,,BKN070,0.17,VWS V14.01,2013-07-11 22:53:00,
2013-07-11 18:58:00,77.0,74.0,29.91,WSW,257,0.0,0.0,91,0.00,,BKN070,0.17,VWS V14.01,2013-07-11 22:58:00,
2013-07-11 19:04:00,76.7,73.8,29.91,WSW,257,0.0,0.0,91,0.00,,BKN090,0.17,VWS V14.01,2013-07-11 23:04:00,
2013-07-11 19:09:00,76.1,72.7,29.92,WSW,257,0.0,0.0,89,0.00,,BKN090,0.17,VWS V14.01,2013-07-11 23:09:00,
2013-07-11 19:15:00,76.1,72.3,29.92,WSW,257,0.0,0.0,88,0.01,,BKN090,0.18,VWS V14.01,2013-07-11 23:15:00,
2013-07-11 19:20:00,75.8,72.0,29.92,WSW,257,0.0,0.0,88,0.01,,BKN090,0.18,VWS V14.01,2013-07-11 23:20:00,
2013-07-11 19:25:00,75.6,72.0,29.92,WSW,257,0.0,0.0,89,0.01,,BKN090,0.18,VWS V14.01,2013-07-11 23:25:00,
2013-07-11 19:30:00,75.0,71.5,29.93,WSW,257,0.0,0.0,89,0.01,,BKN090,0.18,VWS V14.01,2013-07-11 23:30:00,
2013-07-11 19:35:00,74.7,71.3,29.93,WSW,257,0.0,0.0,89,0.01,,BKN090,0.18,VWS V14.01,2013-07-11 23:35:00,
2013-07-11 19:40:00,74.3,71.1,29.93,WSW,257,0.0,0.0,90,0.01,,BKN090,0.18,VWS V14.01,2013-07-11 23:40:00,
2013-07-11 19:46:00,74.2,71.2,29.93,WSW,257,0.0,0.0,90,0.01,,BKN090,0.18,VWS V14.01,2013-07-11 23:46:00,
2013-07-11 19:51:00,74.2,71.3,29.93,WSW,257,0.0,0.0,91,0.01,,BKN090,0.18,VWS V14.01,2013-07-11 23:51:00,
2013-07-11 19:56:00,73.9,71.1,29.93,WSW,257,0.0,0.0,91,0.01,,BKN090,0.18,VWS V14.01,2013-07-11 23:56:00,
2013-07-11 20:01:00,73.6,70.8,29.93,WSW,257,0.0,0.0,91,0.01,,BKN090,0.18,VWS V14.01,2013-07-12 00:01:00,
2013-07-11 20:06:00,73.4,70.7,29.93,WSW,257,0.0,0.0,91,0.01,,BKN065,0.18,VWS V14.01,2013-07-12 00:06:00,
2013-07-11 20:11:00,73.3,70.6,29.93,WSW,257,0.0,0.0,91,0.01,,BKN065,0.18,VWS V14.01,2013-07-12 00:11:00,
2013-07-11 20:17:00,73.0,70.3,29.93,WSW,257,0.0,0.0,91,0.01,,BKN065,0.18,VWS V14.01,2013-07-12 00:17:00,
2013-07-11 20:22:00,72.6,70.0,29.93,WSW,257,0.0,0.0,92,0.00,,BKN065,0.18,VWS V14.01,2013-07-12 00:22:00,
2013-07-11 20:27:00,72.3,69.7,29.93,WSW,257,0.0,0.0,92,0.00,,BKN065,0.18,VWS V14.01,2013-07-12 00:27:00,
2013-07-11 20:32:00,72.0,69.6,29.94,WSW,257,0.0,0.0,92,0.00,,BKN065,0.18,VWS V14.01,2013-07-12 00:32:00,
2013-07-11 20:37:00,71.8,69.4,29.93,WSW,257,0.0,0.0,92,0.00,,BKN065,0.18,VWS V14.01,2013-07-12 00:37:00,
2013-07-11 20:42:00,71.6,69.2,29.93,WSW,257,0.0,0.0,92,0.00,,BKN065,0.18,VWS V14.01,2013-07-12 00:42:00,
2013-07-11 20:47:00,71.4,69.0,29.93,WSW,257,0.0,0.0,92,0.00,,BKN065,0.18,VWS V14.01,2013-07-12 00:47:00,
2013-07-11 20:52:00,71.1,68.8,29.94,WSW,257,0.0,0.0,92,0.00,,BKN065,0.18,VWS V14.01,2013-07-12 00:52:00,
2013-07-11 20:57:00,70.8,68.5,29.94,WSW,257,0.0,0.0,92,0.00,,BKN065,0.18,VWS V14.01,2013-07-12 00:57:00,
2013-07-11 21:03:00,70.6,68.4,29.94,WSW,257,0.0,0.0,93,0.00,,FEW045,0.18,VWS V14.01,2013-07-12 01:03:00,
2013-07-11 21:08:00,70.4,68.2,29.94,WSW,257,0.0,0.0,93,0.00,,FEW045,0.18,VWS V14.01,2013-07-12 01:08:00,
2013-07-11 21:13:00,70.1,68.0,29.94,WSW,257,0.0,0.0,93,0.00,,FEW045,0.18,VWS V14.01,2013-07-12 01:13:00,
2013-07-11 21:18:00,69.8,67.7,29.95,WSW,257,0.0,0.0,93,0.00,,FEW045,0.18,VWS V14.01,2013-07-12 01:18:00,
2013-07-11 21:23:00,69.5,67.4,29.95,WSW,257,0.0,0.0,93,0.00,,FEW045,0.18,VWS V14.01,2013-07-12 01:23:00,
2013-07-11 21:28:00,69.4,67.4,29.95,WSW,257,0.0,0.0,93,0.00,,FEW045,0.18,VWS V14.01,2013-07-12 01:28:00,
2013-07-11 21:33:00,69.2,67.2,29.95,WSW,257,0.0,0.0,93,0.00,,FEW045,0.18,VWS V14.01,2013-07-12 01:33:00,
2013-07-11 21:38:00,69.0,67.1,29.95,WSW,257,0.0,0.0,94,0.00,,FEW045,0.18,VWS V14.01,2013-07-12 01:38:00,
2013-07-11 21:43:00,68.8,66.9,29.95,WSW,257,0.0,0.0,94,0.00,,FEW045,0.18,VWS V14.01,2013-07-12 01:43:00,
2013-07-11 21:48:00,68.6,66.8,29.95,WSW,257,0.0,0.0,94,0.00,,FEW045,0.18,VWS V14.01,2013-07-12 01:48:00,
2013-07-11 21:54:00,68.5,66.8,29.95,WSW,257,0.0,0.0,94,0.00,,FEW045,0.18,VWS V14.01,2013-07-12 01:54:00,
2013-07-11 21:59:00,68.4,66.7,29.96,WSW,257,0.0,0.0,94,0.00,,FEW045,0.18,VWS V14.01,2013-07-12 01:59:00,
2013-07-11 22:04:00,68.2,66.6,29.96,WSW,257,0.0,0.0,95,0.00,,CLR,0.18,VWS V14.01,2013-07-12 02:04:00,
2013-07-11 22:09:00,68.0,66.5,29.96,WSW,257,0.0,0.0,95,0.00,,CLR,0.18,VWS V14.01,2013-07-12 02:09:00,
2013-07-11 22:14:00,67.9,66.4,29.96,WSW,257,0.0,0.0,95,0.00,,CLR,0.18,VWS V14.01,2013-07-12 02:14:00,
2013-07-11 22:19:00,67.7,66.3,29.96,WSW,257,0.0,0.0,95,0.00,,CLR,0.18,VWS V14.01,2013-07-12 02:19:00,
2013-07-11 22:24:00,67.5,66.2,29.96,WSW,257,0.0,0.0,96,0.00,,CLR,0.18,VWS V14.01,2013-07-12 02:24:00,
2013-07-11 22:29:00,67.4,66.1,29.96,WSW,257,0.0,0.0,96,0.00,,CLR,0.18,VWS V14.01,2013-07-12 02:29:00,
2013-07-11 22:34:00,67.2,66.0,29.96,WSW,257,0.0,0.0,96,0.00,,CLR,0.18,VWS V14.01,2013-07-12 02:34:00,
2013-07-11 22:40:00,67.1,66.0,29.96,WSW,257,0.0,0.0,96,0.00,,CLR,0.18,VWS V14.01,2013-07-12 02:40:00,
2013-07-11 22:45:00,67.0,65.9,29.96,WSW,257,0.0,0.0,96,0.00,,CLR,0.18,VWS V14.01,2013-07-12 02:45:00,
2013-07-11 22:50:00,66.9,65.8,29.96,WSW,257,0.0,0.0,96,0.00,,CLR,0.18,VWS V14.01,2013-07-12 02:50:00,
2013-07-11 22:55:00,66.8,65.8,29.96,WSW,257,0.0,0.0,96,0.00,,CLR,0.18,VWS V14.01,2013-07-12 02:55:00,
2013-07-11 23:00:00,66.7,65.7,29.96,WSW,257,0.0,0.0,97,0.00,,CLR,0.18,VWS V14.01,2013-07-12 03:00:00,
2013-07-11 23:05:00,66.5,65.5,29.96,WSW,257,0.0,0.0,97,0.00,,CLR,0.18,VWS V14.01,2013-07-12 03:05:00,
2013-07-11 23:11:00,66.4,65.5,29.96,WSW,257,0.0,0.0,97,0.00,,CLR,0.18,VWS V14.01,2013-07-12 03:11:00,
2013-07-11 23:16:00,66.3,65.4,29.96,WSW,257,0.0,0.0,97,0.00,,CLR,0.18,VWS V14.01,2013-07-12 03:16:00,
2013-07-11 23:21:00,66.2,65.3,29.95,WSW,257,0.0,0.0,97,0.00,,CLR,0.18,VWS V14.01,2013-07-12 03:21:00,
2013-07-11 23:26:00,66.1,65.3,29.96,WSW,257,0.0,0.0,97,0.00,,CLR,0.18,VWS V14.01,2013-07-12 03:26:00,
2013-07-11 23:31:00,66.0,65.2,29.95,WSW,257,0.0,0.0,97,0.00,,CLR,0.18,VWS V14.01,2013-07-12 03:31:00,
2013-07-11 23:36:00,66.0,65.2,29.95,WSW,257,0.0,0.0,97,0.00,,CLR,0.18,VWS V14.01,2013-07-12 03:36:00,
2013-07-11 23:41:00,65.9,65.2,29.96,WSW,257,0.0,0.0,97,0.00,,CLR,0.18,VWS V14.01,2013-07-12 03:41:00,
2013-07-11 23:46:00,65.9,65.2,29.96,WSW,257,0.0,0.0,98,0.00,,CLR,0.18,VWS V14.01,2013-07-12 03:46:00,
2013-07-11 23:52:00,65.8,65.1,29.95,WSW,257,0.0,0.0,98,0.00,,CLR,0.18,VWS V14.01,2013-07-12 03:52:00,
2013-07-11 23:57:00,65.8,65.1,29.96,WSW,257,0.0,0.0,98,0.00,,CLR,0.18,VWS V14.01,2013-07-12 03:57:00,